TimeMST,TemperatureF,Dew PointF,Humidity,Sea Level PressureIn,VisibilityMPH,Wind Direction,Wind SpeedMPH,Gust SpeedMPH,PrecipitationIn,Events,Conditions,WindDirDegrees,DateUTC
12:53 AM,15.1,12.0,88,29.92,10.0,NNW,8.1,-,N/A,,Mostly Cloudy,330,2013-12-22 07:53:00
1:53 AM,17.1,12.9,84,29.93,10.0,North,9.2,-,N/A,,Overcast,350,2013-12-22 08:53:00
2:53 AM,15.1,12.0,88,29.96,10.0,NNW,9.2,-,N/A,,Overcast,330,2013-12-22 09:53:00
3:53 AM,16.0,12.0,84,29.97,10.0,NW,10.4,-,N/A,,Overcast,320,2013-12-22 10:53:00
4:53 AM,12.0,8.1,84,30.01,10.0,Calm,Calm,-,N/A,,Scattered Clouds,0,2013-12-22 11:53:00
5:53 AM,10.9,8.1,88,30.04,10.0,Calm,Calm,-,N/A,,Mostly Cloudy,0,2013-12-22 12:53:00
6:53 AM,9.0,7.0,92,30.07,10.0,SE,3.5,-,N/A,,Clear,140,2013-12-22 13:53:00
7:53 AM,10.9,8.1,88,30.06,10.0,Calm,Calm,-,N/A,,Mostly Cloudy,0,2013-12-22 14:53:00
8:53 AM,15.1,10.0,80,30.06,10.0,Calm,Calm,-,N/A,,Clear,0,2013-12-22 15:53:00
9:53 AM,21.0,12.0,68,30.04,10.0,Calm,Calm,-,N/A,,Overcast,0,2013-12-22 16:53:00
10:53 AM,25.0,10.0,53,30.02,10.0,West,19.6,-,N/A,,Overcast,260,2013-12-22 17:53:00
11:53 AM,26.1,9.0,49,29.99,10.0,West,24.2,-,N/A,,Overcast,270,2013-12-22 18:53:00
12:53 PM,27.0,10.0,49,29.97,10.0,West,29.9,36.8,N/A,,Overcast,280,2013-12-22 19:53:00
1:53 PM,27.0,10.0,49,29.96,10.0,West,31.1,38.0,N/A,,Overcast,280,2013-12-22 20:53:00
2:53 PM,26.1,10.0,51,29.99,10.0,West,25.3,33.4,N/A,,Mostly Cloudy,280,2013-12-22 21:53:00
3:53 PM,26.1,12.0,55,30.01,10.0,West,24.2,33.4,N/A,,Overcast,270,2013-12-22 22:53:00
4:53 PM,24.1,12.9,62,30.07,10.0,West,23.0,27.6,N/A,,Overcast,260,2013-12-22 23:53:00
5:53 PM,23.0,12.9,65,30.10,10.0,WNW,9.2,-,N/A,,Overcast,300,2013-12-23 00:53:00
6:53 PM,23.0,14.0,68,30.13,10.0,WNW,17.3,-,N/A,,Overcast,290,2013-12-23 01:53:00
7:53 PM,21.9,14.0,72,30.14,10.0,NW,6.9,-,N/A,,Overcast,310,2013-12-23 02:53:00
8:31 PM,19.4,15.8,86,30.00,1.8,North,11.5,-,0.00,Snow,Light Snow,10,2013-12-23 03:31:00
8:38 PM,17.6,15.8,93,30.01,0.8,North,11.5,-,0.00,Snow,Light Snow,10,2013-12-23 03:38:00
8:46 PM,17.6,15.8,93,30.01,1.0,North,10.4,-,0.00,Snow,Light Snow,10,2013-12-23 03:46:00
8:50 PM,17.6,15.8,93,30.01,0.8,North,9.2,-,0.00,Snow,Light Snow,360,2013-12-23 03:50:00
8:53 PM,18.0,15.1,88,30.17,0.8,North,10.4,-,0.00,Snow,Light Snow,10,2013-12-23 03:53:00
9:01 PM,17.6,15.8,93,30.02,2.0,North,10.4,-,0.00,Snow,Light Snow,360,2013-12-23 04:01:00
9:14 PM,17.6,15.8,93,30.02,1.2,North,11.5,-,0.00,Snow,Light Snow,360,2013-12-23 04:14:00
9:28 PM,17.6,14.0,86,30.03,2.5,North,12.7,-,0.00,Snow,Light Snow,360,2013-12-23 04:28:00
9:36 PM,17.6,14.0,86,30.02,0.8,North,15.0,-,0.00,Snow,Light Snow,360,2013-12-23 04:36:00
9:51 PM,17.6,14.0,86,30.03,1.0,North,13.8,-,0.00,Snow,Light Snow,360,2013-12-23 04:51:00
9:52 PM,17.1,14.0,88,30.17,1.0,North,12.7,-,0.00,Snow,Light Snow,360,2013-12-23 04:52:00
10:01 PM,17.6,14.0,86,30.03,3.0,North,13.8,-,0.00,Snow,Light Snow,360,2013-12-23 05:01:00
10:22 PM,15.8,12.2,86,30.03,7.0,North,15.0,-,0.00,,Mostly Cloudy,350,2013-12-23 05:22:00
10:53 PM,16.0,12.9,88,30.16,8.0,North,15.0,-,0.00,,Mostly Cloudy,350,2013-12-23 05:53:00
11:53 PM,17.1,14.0,88,30.15,10.0,North,12.7,-,N/A,,Overcast,350,2013-12-23 06:53:00